Lapse_Rate
4.6 4.5 5.1 5.3 5.6 5.6 5.9 6.3 6.6 6.6 6.7 7.1 7.0 6.2 6.4 6.8 7.0 7.2 7.1 7.0 7.1 7.1 8.2 8.5 8.6 8.2 8.2 8.1 8.0 7.7 7.9 7.8 7.7 7.7 7.9 8.1 8.2 8.3 8.4 8.5 8.6 8.6 8.6 8.5
4.5 4.5 4.9 4.8 4.7 4.8 5.3 5.5 5.8 6.1 5.8 6.6 6.7 6.3 6.5 6.7 6.6 6.6 6.8 6.7 6.5 6.5 7.8 8.2 8.3 8.3 8.2 8.1 7.5 7.4 7.7 7.7 7.5 7.4 7.8 8.0 8.1 8.3 8.4 8.5 8.5 8.6 8.5 8.5
4.7 5.9 5.9 5.4 5.2 4.9 4.8 5.1 5.7 5.9 6.3 6.1 6.2 6.2 6.4 6.6 6.4 6.2 6.1 6.1 6.4 7.3 7.8 8.1 8.1 7.9 8.0 7.7 7.5 7.3 7.3 6.9 7.0 7.3 7.6 7.9 8.2 8.3 8.3 8.4 8.4 8.3 8.4 8.3
5.7 7.0 7.0 7.1 6.9 6.9 6.2 6.2 6.0 6.0 6.2 6.0 6.3 6.8 6.7 6.6 6.6 6.5 6.3 6.2 6.4 7.3 7.8 7.7 7.6 7.6 7.6 7.7 7.3 7.2 7.0 6.9 7.1 7.3 7.5 7.8 8.2 8.2 8.3 8.2 8.2 8.3 8.3 8.1
7.0 7.7 7.9 7.9 8.1 8.2 8.2 7.8 7.7 7.9 7.0 6.3 5.9 6.6 6.6 6.8 6.6 6.5 6.5 6.4 6.4 7.4 7.4 7.3 7.2 7.3 7.4 7.2 7.1 7.1 7.0 7.2 7.1 7.3 7.5 7.9 8.1 8.2 8.2 8.2 8.3 8.2 8.1 8.0
7.3 8.1 8.0 7.9 8.1 8.3 9.1 9.1 9.0 8.9 8.5 8.8 6.4 8.3 6.6 6.7 6.7 6.9 6.9 6.8 6.7 6.9 6.9 7.0 7.2 7.2 7.3 7.3 7.3 7.0 7.2 7.2 7.3 7.6 7.9 8.1 8.2 8.1 8.1 8.1 8.1 8.0 7.9 7.8
8.1 8.2 8.1 7.8 7.9 8.7 9.2 9.3 9.4 9.3 9.5 9.1 6.9 8.9 6.5 6.9 6.8 6.9 6.5 6.7 6.7 6.4 7.0 6.6 7.1 7.1 7.4 7.6 7.5 7.5 7.4 7.4 7.7 8.0 8.0 8.1 8.1 8.1 7.9 8.1 8.0 7.9 7.7 7.7
7.5 7.9 7.3 7.7 7.9 9.0 8.7 9.1 9.4 9.1 9.5 9.8 9.1 9.4 6.4 6.5 6.8 6.6 6.5 6.4 6.4 6.4 6.2 6.4 7.1 7.3 7.4 7.2 7.5 7.7 7.8 8.0 7.9 8.1 8.1 8.2 8.3 7.9 8.0 8.0 7.9 7.7 7.7 7.7
7.6 7.8 7.8 7.6 7.6 8.2 8.4 8.1 9.1 9.2 9.1 9.3 9.6 9.4 6.8 6.5 7.1 6.8 6.7 6.3 6.2 5.8 6.2 7.0 7.1 7.1 7.4 7.6 7.5 7.7 7.8 7.9 8.0 8.2 8.3 8.3 7.9 7.9 8.0 7.9 7.7 7.8 7.5 7.1
7.6 7.5 8.1 7.6 7.2 8.2 8.6 8.5 7.4 8.9 8.6 9.2 9.8 9.4 6.8 7.1 6.6 7.4 6.9 5.9 5.6 6.7 7.2 7.4 7.7 7.4 7.4 7.5 7.8 7.9 8.0 8.0 8.1 8.1 8.0 7.9 7.8 7.9 7.8 7.6 7.5 7.2 7.0 6.8
8.0 7.8 8.2 8.2 8.1 8.2 8.1 7.8 7.6 8.0 9.2 9.4 9.7 9.4 9.1 7.7 7.5 6.8 6.3 6.2 5.9 6.9 7.4 7.6 7.6 7.6 7.5 7.7 7.8 8.0 7.9 7.8 7.7 7.9 7.9 7.9 7.9 7.7 7.5 7.2 7.0 6.9 6.8 6.8
8.0 7.5 8.0 8.4 8.4 7.9 7.4 7.0 7.0 7.3 8.7 9.0 8.4 9.1 8.7 6.8 6.4 5.9 6.0 6.1 5.8 6.4 7.8 7.8 7.7 7.8 7.7 7.8 7.8 7.8 7.8 7.8 7.8 7.9 7.9 7.8 7.5 7.3 6.9 6.8 6.8 6.7 6.7 6.7
7.4 7.9 8.3 9.3 8.2 7.5 8.0 8.2 7.7 7.5 7.3 7.4 9.5 9.4 8.2 7.3 6.7 6.0 5.6 5.6 5.7 5.8 7.2 7.8 7.8 7.7 7.7 7.8 7.8 7.9 7.9 7.8 7.9 7.7 7.6 7.4 7.0 6.7 6.8 6.8 6.8 6.8 6.7 6.4
6.9 7.3 7.9 8.6 8.8 8.4 8.3 8.1 8.1 8.2 8.2 8.5 9.1 8.7 8.8 7.9 7.1 6.5 5.6 5.3 5.6 5.8 6.6 7.5 7.6 7.7 7.6 7.7 7.8 7.7 7.9 7.9 7.7 7.5 7.3 6.9 6.7 6.7 6.7 6.7 6.5 6.3 6.3 6.3
7.0 7.0 7.8 8.0 8.2 8.1 7.9 8.0 8.0 8.0 8.2 9.0 8.7 8.6 8.8 7.9 6.8 6.2 5.7 5.6 5.7 6.0 5.9 7.2 7.3 7.5 7.4 7.5 7.7 7.7 7.6 7.5 7.3 7.1 6.8 6.7 6.7 6.6 6.5 6.2 6.1 6.1 6.2 6.1
6.7 6.9 7.4 7.6 7.9 7.9 8.0 8.0 8.1 8.0 8.0 8.2 8.0 7.4 7.1 6.4 6.1 5.4 5.6 5.6 5.8 5.7 5.8 6.6 6.7 6.8 7.2 7.5 7.6 7.6 7.5 7.3 6.9 6.7 6.7 6.7 6.5 6.3 6.1 6.0 6.1 6.1 6.2 6.1
6.1 6.4 6.9 7.7 8.0 7.9 8.0 8.4 8.7 8.6 8.5 8.3 7.7 7.4 7.2 6.9 6.0 5.5 5.5 5.5 5.7 5.8 5.6 6.6 6.6 6.9 7.1 7.1 7.3 7.4 7.2 6.9 6.6 6.6 6.6 6.3 6.2 6.2 6.1 6.0 6.0 6.1 6.2 6.1
6.3 6.2 6.6 7.4 7.2 7.7 8.4 8.2 8.0 8.1 8.4 8.4 7.2 6.9 6.9 6.8 6.2 5.8 5.5 5.7 6.7 6.5 5.8 6.5 6.9 6.9 7.1 7.1 7.1 7.0 6.7 6.6 6.5 6.4 6.1 5.9 6.2 6.3 6.2 6.1 6.1 6.1 6.0 5.9
6.4 6.3 6.7 7.3 7.8 7.9 7.8 7.5 7.0 6.9 7.3 7.6 6.9 6.8 6.9 6.6 6.3 6.0 6.7 6.5 6.8 6.0 6.1 6.8 7.0 7.0 7.2 7.0 7.0 6.7 6.5 6.4 5.7 5.0 5.7 6.0 6.1 6.2 6.1 6.1 6.0 6.0 6.1 6.0
6.4 6.1 6.1 6.7 6.7 6.9 6.7 6.6 6.4 6.3 6.5 6.9 6.0 6.2 6.4 6.2 6.3 6.6 5.9 6.1 6.3 6.3 6.4 6.7 6.7 7.3 7.2 7.1 6.9 6.5 6.4 6.0 5.0 5.2 5.9 5.9 6.1 6.0 6.0 6.1 6.0 6.1 6.2 6.0
6.3 5.9 5.9 6.2 6.2 6.2 6.1 5.9 6.1 5.9 7.1 6.4 5.5 5.6 5.4 5.6 6.2 6.2 6.6 6.9 6.4 6.6 6.9 6.8 7.3 7.5 7.4 7.1 6.7 6.6 6.3 5.1 5.6 5.5 5.8 5.9 5.9 5.9 6.0 6.1 6.0 6.1 6.1 5.8
6.2 6.3 6.5 6.3 6.4 6.7 6.3 6.0 5.6 6.1 6.7 6.1 5.2 5.4 6.4 6.3 6.5 6.6 6.6 6.4 6.6 6.8 7.0 6.9 7.2 7.6 7.3 6.9 6.8 6.5 6.2 5.3 5.5 5.4 6.1 6.2 6.1 5.9 5.9 5.9 5.8 5.7 5.8 5.9
6.3 6.2 6.2 6.3 6.3 6.2 6.0 5.7 5.9 6.1 6.1 5.6 5.1 5.4 6.5 6.4 6.0 6.5 6.4 6.3 6.5 6.8 6.7 6.0 6.8 7.4 7.1 6.9 6.7 6.6 5.7 5.3 5.1 5.7 6.4 6.3 6.1 5.9 6.0 5.8 5.7 5.7 5.8 5.8
6.4 6.2 6.2 6.0 5.8 5.8 5.8 5.6 6.1 6.1 6.1 5.3 5.0 5.5 6.1 6.0 6.0 6.3 6.5 6.1 6.6 6.8 6.5 6.2 6.7 7.2 7.1 7.0 6.7 6.5 5.3 5.1 5.1 6.2 6.3 6.2 6.1 6.0 6.1 5.8 5.7 5.4 5.5 5.7
6.3 6.0 6.0 5.9 5.8 6.0 5.7 5.7 6.2 6.0 5.4 5.1 5.3 5.4 5.8 5.7 5.5 6.2 6.5 6.3 6.2 6.7 6.5 6.2 6.6 7.2 7.1 6.9 6.8 6.3 5.4 5.3 5.6 6.3 6.2 6.3 6.3 6.1 6.0 5.9 5.8 5.7 5.6 5.7
6.5 6.0 5.8 5.9 5.7 5.5 5.3 5.4 6.1 6.2 5.7 5.3 5.3 5.3 5.5 5.8 6.6 6.1 6.4 6.6 6.8 7.1 7.1 6.2 6.5 6.9 6.9 6.7 6.6 6.0 5.4 5.5 5.5 6.2 6.3 6.1 6.4 6.3 6.0 5.9 5.9 5.8 5.8 5.7
Wind_Speed
13 12 14 15 18 25 25 28 22 19 22 26 26 34 31 28 29 28 24 21 20 21 20 19 17 16 16 16 15 14 14 12 9 8 10 10 10 9 9 9 11 12 12 15
12 16 17 15 14 20 22 26 31 20 15 20 25 32 29 27 29 28 27 27 26 24 23 22 21 18 17 17 15 15 15 11 10 9 8 7 8 9 8 8 9 12 14 14
15 16 10 10 14 19 23 25 25 27 20 17 21 27 27 22 24 24 24 24 24 26 25 23 22 20 19 18 15 14 13 12 12 12 8 7 7 5 7 9 9 11 12 9
15 11 13 16 19 18 21 22 26 24 22 23 21 20 23 25 29 29 27 25 25 25 25 23 23 23 21 19 15 13 12 11 11 13 11 12 10 8 8 8 9 8 11 12
21 19 16 18 20 19 20 18 24 23 23 25 30 19 19 19 21 19 18 20 23 24 24 25 24 23 19 17 15 13 13 12 12 13 12 11 11 7 9 10 12 10 10 11
21 18 18 22 19 17 14 17 20 19 14 18 24 22 20 21 26 22 18 20 21 21 19 18 19 18 16 13 13 13 12 11 11 12 13 12 12 10 10 12 10 10 10 10
18 14 14 15 19 20 16 16 11 15 18 19 21 20 19 7 1 1 8 15 8 11 13 13 12 12 13 11 12 10 10 10 10 12 12 12 12 12 14 15 12 14 11 10
7 7 14 7 18 21 21 19 15 20 17 20 26 23 16 16 14 15 12 10 10 11 11 10 12 10 11 11 9 8 10 11 12 12 13 12 13 10 11 11 12 10 10 10
9 6 12 10 12 14 20 20 21 24 19 16 18 26 26 19 11 9 3 6 8 10 11 14 11 8 7 7 6 9 11 12 13 14 13 13 12 14 13 15 11 10 11 10
7 10 10 4 7 14 8 13 4 15 13 20 17 22 15 24 27 15 0 9 13 15 12 6 3 7 6 8 10 12 13 15 15 15 14 13 14 14 14 12 13 12 11 12
14 7 11 13 6 4 5 9 12 14 17 13 12 16 19 14 11 8 7 12 15 15 11 7 2 5 9 12 13 14 15 16 15 15 15 15 14 14 13 12 12 12 11 11
13 6 11 16 10 5 8 11 5 5 20 16 10 3 11 18 14 6 11 15 16 15 8 4 2 6 12 14 14 14 15 16 15 15 15 15 14 14 13 12 12 11 10 9
8 5 10 9 8 4 8 14 13 14 14 14 12 4 14 10 6 10 14 16 16 15 8 4 3 6 11 13 14 15 15 16 16 16 16 14 14 13 12 12 11 10 10 10
10 13 15 13 18 14 11 12 12 13 10 13 16 20 8 11 12 16 15 19 18 16 9 3 2 6 10 13 14 15 16 16 16 16 15 14 12 12 11 10 10 10 11 10
5 14 18 18 19 17 18 19 17 17 19 18 18 24 19 17 16 18 19 21 17 15 9 4 3 6 9 13 15 15 15 15 14 15 14 13 12 11 11 11 11 11 11 9
4 6 13 20 18 18 22 21 21 21 20 21 22 27 22 23 22 21 20 18 16 14 12 7 7 8 11 14 15 15 15 14 13 14 14 13 12 11 11 11 11 11 9 7
4 4 9 13 11 13 16 17 19 22 21 21 21 23 21 23 20 19 19 18 16 15 13 10 11 12 13 14 15 15 15 14 14 14 13 11 10 10 10 11 11 11 8 7
5 9 9 6 2 9 11 2 9 13 13 15 22 22 23 22 20 18 17 18 18 15 12 13 13 14 13 14 16 15 15 14 14 13 11 10 9 10 9 10 11 9 8 7
12 6 5 4 9 14 19 7 4 3 12 16 21 19 18 16 15 17 16 17 19 16 10 13 13 15 14 16 16 15 15 14 13 12 10 9 9 10 10 12 11 9 7 6
8 12 6 4 4 5 3 6 3 10 16 8 16 18 14 10 11 9 2 12 10 8 10 14 15 17 18 17 16 15 15 14 12 11 10 9 10 11 11 11 10 8 7 8
2 3 12 12 6 6 2 4 7 5 5 14 12 13 16 10 11 12 13 16 17 6 14 16 17 16 17 17 16 15 15 13 11 10 11 10 10 10 10 10 8 7 7 7
3 4 2 6 6 5 4 6 5 12 20 19 15 14 15 15 13 15 15 15 15 8 15 16 16 16 17 18 16 16 14 12 10 10 11 11 11 9 9 9 8 7 6 7
3 2 3 3 3 10 13 9 15 21 23 23 14 14 15 18 14 14 12 10 8 9 12 15 15 17 17 17 16 17 14 12 10 11 11 11 11 9 8 7 7 6 7 6
4 4 3 3 1 12 14 10 13 17 3 10 12 15 10 11 9 9 9 8 7 5 9 14 16 17 17 16 16 16 15 13 12 12 12 11 10 8 7 5 5 5 5 5
4 2 4 5 11 11 4 13 14 14 11 12 9 8 7 9 6 5 1 5 7 6 7 12 15 15 17 17 17 16 14 13 12 11 11 10 9 7 7 4 3 3 5 4
3 3 2 3 14 7 9 12 15 15 13 12 12 10 11 10 8 8 1 3 6 7 5 12 15 15 16 17 17 15 15 13 13 12 8 8 8 8 6 7 7 13 12 12
Wind_Direction
247 260 257 259 253 256 265 268 264 273 261 256 238 241 248 246 252 256 258 253 255 258 267 273 276 270 265 263 254 248 248 243 226 221 222 219 215 206 208 207 199 192 193 198
259 248 263 276 273 275 260 257 259 257 287 246 246 250 251 247 250 250 252 255 260 266 266 267 266 263 260 259 255 251 245 236 222 220 223 224 211 200 196 192 176 192 194 195
274 277 297 260 263 251 254 254 256 253 261 239 251 252 251 249 255 255 258 260 261 262 264 266 266 263 260 255 251 249 249 229 223 224 207 195 167 170 171 186 183 189 189 176
280 288 274 260 258 257 264 249 255 254 250 244 231 254 243 242 244 243 246 247 251 256 257 260 261 258 255 256 252 247 235 225 214 204 201 196 186 180 192 172 172 164 172 171
268 290 285 262 256 261 261 270 249 243 246 245 244 258 258 256 256 255 251 254 254 255 258 258 258 259 259 255 252 242 243 239 225 202 209 186 208 173 162 161 150 158 162 167
270 269 269 265 262 266 260 273 256 240 255 249 237 236 253 251 254 253 251 254 251 256 268 268 263 256 247 248 242 236 231 219 197 192 192 190 182 163 156 141 150 153 155 163
317 320 298 237 240 242 238 238 246 227 231 239 240 231 240 266 313 221 293 265 229 267 269 264 260 238 228 229 220 217 211 197 183 182 175 177 165 163 155 155 155 150 149 158
333 340 334 298 234 241 229 233 240 242 233 234 225 239 225 232 264 266 255 260 272 270 277 271 276 249 236 216 212 207 201 175 168 162 158 154 152 153 147 148 139 139 151 153
314 302 288 305 322 272 235 249 261 263 268 276 228 216 249 247 243 233 238 338 333 318 303 293 270 217 206 177 171 187 158 148 149 143 138 143 144 145 126 132 141 150 138 133
314 298 299 138 289 264 293 248 319 249 257 250 238 212 220 213 228 247 274 2 356 351 332 327 239 179 134 153 147 137 139 138 133 133 134 131 125 125 129 132 132 138 131 142
302 275 288 285 244 229 272 242 243 247 243 265 227 217 210 214 123 111 33 11 360 6 347 4 8 114 154 140 133 134 130 129 130 131 123 125 123 126 132 133 135 136 140 148
309 291 285 287 284 213 172 227 228 250 224 250 298 34 122 113 115 71 12 13 357 18 6 353 113 156 151 136 134 133 130 129 129 126 121 122 126 129 132 134 135 142 143 148
340 255 300 292 167 215 218 239 209 250 254 266 242 160 152 170 90 29 4 360 353 5 31 44 130 156 140 141 135 135 134 130 126 123 124 127 129 130 133 135 141 144 146 150
295 266 263 276 298 321 300 284 276 269 280 269 252 263 192 214 328 332 339 337 340 341 65 61 141 153 143 143 139 135 130 130 130 129 129 129 132 134 137 140 146 151 153 154
269 263 266 273 281 284 281 275 269 260 262 262 262 271 263 274 301 316 311 306 320 335 14 140 167 145 157 142 135 133 132 130 130 129 127 130 133 133 137 143 150 149 153 158
207 264 282 274 268 270 270 268 264 263 259 259 264 266 271 281 284 288 292 307 310 320 335 146 172 167 151 146 143 137 134 133 134 134 133 137 136 136 137 146 148 157 155 162
242 263 269 255 264 274 273 266 258 252 249 242 252 262 263 266 272 276 284 295 302 302 316 157 182 174 158 155 142 143 138 140 140 137 139 139 140 139 148 153 156 158 153 142
221 224 252 281 271 255 254 46 297 297 275 258 253 259 262 265 271 272 273 278 290 291 291 158 190 168 164 151 153 142 148 146 145 142 142 145 153 146 151 162 159 154 144 160
218 212 265 242 227 266 285 294 351 2 285 284 262 257 268 268 267 264 266 270 272 275 258 163 174 165 154 162 150 151 153 153 151 146 146 151 148 150 153 153 153 151 149 145
207 233 257 260 248 256 24 101 29 296 280 305 255 255 267 246 242 253 223 340 309 258 198 157 168 157 158 156 153 157 152 158 157 143 146 145 149 154 159 155 162 159 167 169
224 216 231 242 254 267 279 31 340 239 355 341 343 330 318 248 251 292 319 305 306 234 158 158 156 157 157 154 159 160 160 163 147 141 140 144 144 154 156 161 166 170 188 145
290 305 250 237 244 260 50 321 231 317 306 306 301 297 292 281 271 273 283 285 285 192 156 157 157 154 155 158 159 160 168 153 143 140 146 139 148 158 152 163 162 176 173 172
291 234 300 260 308 293 295 243 267 266 260 269 274 278 279 282 274 278 278 267 252 170 158 159 154 152 157 160 163 160 164 150 152 144 138 144 157 149 146 157 175 173 180 172
281 111 242 315 289 278 307 305 310 334 333 243 264 265 282 281 278 273 263 235 179 146 182 162 150 155 157 160 162 162 156 164 149 144 145 147 153 148 144 153 161 186 166 164
306 246 285 252 278 308 4 352 337 341 19 23 11 6 348 341 331 302 272 221 152 140 206 162 155 156 158 160 159 159 163 157 144 148 147 155 140 161 148 122 75 139 81 36
338 298 284 319 326 360 334 347 343 343 7 13 7 3 13 352 354 340 93 118 144 123 201 178 157 153 157 161 157 158 168 158 145 152 165 160 148 153 154 145 125 55 49 42